User: anonymous   Login
Location: Unspecified
(0.0000°N, 0.0000°E)
Time: 22:47:32
(UTC+00:00)
Language:

SWISSCUBE - Orbit

View from above orbital plane
View from above orbital plane
View from above satellite
View from above satellite

Ground track
Ground track

The orbit data is extracted from the following two-line orbital elements,

1 35932U 09051B   17267.84875887  .00000178  00000-0  51250-4 0  9998
2 35932  98.5103  48.2181 0006666 310.2897  49.7716 14.56055185424822
Epoch (UTC): 24 September 2017 20:22:12
Eccentricity: 0.0006666
inclination: 98.5103°
perigee height: 701 km
apogee height: 710 km
right ascension of ascending node: 48.2181°
argument of perigee: 310.2897°
revolutions per day: 14.56055185
mean anomaly at epoch: 49.7716°
orbit number at epoch: 42482

The dashed part of the orbit path shows where the satellite is in the earth's shadow,  

DLR